TJS-15

Last updated on Thu Oct 30 2025 00:02:52 GMT+0000 (Coordinated Universal Time)

1 63157U 25045A 25302.68193500 -.00000255 00000+0 00000+0 0 9993 2 63157 0.0630 69.5547 0003819 232.6158 76.0037 1.00272777 2443
UTC large
Height (km)
Speed (km/s)
/
Latitude / Longitude
Inclination (degrees)
Orbital Period (minutes)
Azimuth
Elevation
Range (km)
Doppler Factor

Next 0 passes for location: London (51.5072 / 0.1276)

Sorry there are no passes over London.